Погода в Караганде

Погода в Караганде : погода сейчас, прогноз погоды и архив. Всё, что Вы хотите узнать о погоде в Караганде!

Поиск расширенной информации на нашем сайте:

Другие новости

Новости СМИ2

Главная страница сайта

Новости сайта

03.07.2017

Напоминаем, что на нашем специализированном сайте Метеоцентр.Азия вы можете получить высокодетализированные автоматические прогнозы погоды по пунктам России, СНГ и мира в авиационном формате (включающие направление и скорость ветра, видимость, явления погоды, количество и форму облачности, нижнюю и верхнюю границу облачности).


Погода в Караганде - сегодня

Время (UTC), дата Ветер
(°,м/с) 
Видим.   Явления Облачность Т
(°С)
Тd
(°С)
f(%) Тe
(°С)
Pmin
(гПа)
dP
(гПа)
Po
(мм)
O2
(г/м3)
Тmin Tmax R s Состояние
почвы
06 10.12.17 220 (ЮЗ) 1000 м  снег  10/8 300 м средняя 
[Frnb|As op]
-6.7 -8.7 86 -12  1021.9  0.3  715  296  -0.7       
09 10.12.17 210 (ЮЗ) 6-15{18}  4000 м  слаб. снег  10/6 300 м средняя 
[Frnb|As op]
-8 -10.6 82 -13  1023.3  0.9  715  298           
12 10.12.17 210 (ЮЗ) 6{15}  10 км  слаб. снег  10/5 300 м средняя 
[Frnb|As op]
-8 -11.1 78 -13  1024  0.7  716  298           
15 10.12.17 200 (Ю) 10 км  слаб. снег  10/8 300 м средняя 
[Frnb|As op]
-8.2 -10 87 -13  1023.7  -0.3  716  298    -6.3     
18 10.12.17 220 (ЮЗ) 10 км  слаб. снег  10/6 300 м средняя 
[Frnb|As op]
-10.8 -13.1 83 -16  1024.6  0.2  716  301    -6.3     
21 10.12.17 200 (Ю) 10 км  слаб. снег  10/6 300 м средняя 
[Frnb|As op]
-10.4 -12.9 82 -14  1024  -0.5  715  301           
00 11.12.17 240 (ЮЗ) 10 км  слаб. снег  10/6 300 м средняя 
[Frnb|As op]
-10.9 -13.4 82 -14  1023.8  -0.3  715  301           
03 11.12.17 250 (З) 4000 м  снег  10/8 300 м средняя 
[Frnb|As op]
-11.9 -14.5 81 -16  1025.2  0.9  716  303        11  равномерный
сухой снег
100% 
06 11.12.17 240 (ЮЗ) 10 км  слаб. снег  8/0 средняя 
[Ac As]
-12.3 -15.7 76 -16  1027.3  1.9  717  304  -1.1       
09 11.12.17 250 (З) 10 км  слаб. снег  9/0 средняя 
[As op]
-11.4 -14.8 76 -16  1027.7  0.6  718  303           
12 11.12.17 240 (ЮЗ) 4000 м  слаб. снег  9/0 средняя 
[As op]
-11.9 -14.5 81 -15  1029.9  1.9  719  304           
15 11.12.17 230 (ЮЗ) 4000 м  слаб. снег  8/0 средняя 
[As op]
-13.9 -16.3 82 -17  1031.6  1.1  720  307    -11.3       
18 11.12.17 230 (ЮЗ) 4000 м  слаб. снег  10/0 средняя 
[As op]
-14.4 -16.8 82 -18  1032.8  721  308    -11.3  0.6     
21 11.12.17 220 (ЮЗ) 10 км  слаб. снег  10/0 средняя 
[As op]
-15 -17.4 82 -17  1033  721  309           
00 12.12.17 тихо ()   10 км  слаб. снег  8/0 средняя 
[As op]
-15.7 -18.2 81 -16  1033.5  0.3  721  310           
03 12.12.17 240 (ЮЗ) 10 км  слаб. снег  10/0 средняя 
[As op]
-15.4 -17.8 82 -15  1034.3  0.8  721  309        12  равномерный
сухой снег
100% 
06 12.12.17 280 (З) 20000 м  {снег}  ясно 
-14.2 -17.2 78 -16  1034.9  0.9  722  308  -16.1    0.4     
09 12.12.17 330 (СЗ) 10 км  слаб. снег  4/0 средняя 
[As op]
-13.6 -17.4 73 -14  1035.4  0.6  723  308           
12 12.12.17 010 (С) 20000 м  {снег}  ясно 
-17.8 -20.7 78 -18  1038.2  1.5  724  313           
15 12.12.17 030 (СВ) 20000 м    ясно 
-19.4 -22 80 -22  1040.5  1.7  725  316    -13.2  0.2     
18 12.12.17 050 (СВ) 20000 м    ясно 
-20.2 -23 78 -23  1042.1  1.3  726  317    -13.2  0.2     
21 12.12.17 050 (СВ) 20000 м    ясно 
-20.8 -23.8 77 -24  1043.4  727  319           
00 13.12.17 040 (СВ) 20000 м    ясно 
-23 -26.1 76 -26  1045.1  0.9  727  322           
03 13.12.17 тихо ()   20000 м    4/0 средняя 
[Ac trans]
-22.8 -25.7 77 -23  1046.2  1.1  728  322        12  равномерный
сухой снег
100% 
06 13.12.17 060 (СВ) 20000 м    ясно 
-19.6 -22.6 77 -20  1046.6  1.2  729  318  -25.5         
Время (UTC), дата Ветер
(°,м/с) 
Видим.   Явления Облачность Т
(°С)
Тd
(°С)
f(%) Тe
(°С)
Pmin
(гПа)
dP
(гПа)
Po
(мм)
O2
(г/м3)
Тmin Tmax R s Состояние
почвы

Для получения пояснительной информации подведите курсор к названию столбца.

ПОГОДА в Караганде - архив

Всё, что Вы хотите узнать о погоде в Караганде - удобно и подробно!

Выберите нужную дату (начиная с 1 января 2015* года) и нажмите кнопку "Найти".
Будут отображены архивные сводки погоды по пункту Караганда, начиная с указанной даты.


Отображать данные в формате CSV (для использования в таблицах Excel)


Внимание! Наш архив погоды предназначен исключительно для личного некоммерческого использования в познавательных целях. Если Вам необходимы официальные справки о состоянии погоды (для производственных, юридических, коммерческих и т.п. целей), обращайтесь в органы Росгидромета.

*Примечание: данная дата относится к архиву по метеостанциям СССР (Россия, СНГ, Балтия).
Архив по метеостанциям Зарубежной Европы и Азии (кроме Китая) хранится 10 дней, по другим регионам земного шара (Китай, Африка, Америка, Австралия, Океания) - 1 день.

Караганда - район местоположения метеостанции


Название, широта, долгота, высота метеостанции:
Караганда (город) 49.8°ш. 73.2°д. 553 м над ур. моря [Казахстан]

Дополнительная информация

В oтличие oт бoльшинства пoгoдных сайтoв мы публикуем пoдрoбную метеoинфoрмацию в детальнoм прoфессиoнальнoм фoрмате.

Характеристики температуры и влажнoсти вoздуха измеряются на высoте 2 м в тени вдали oт зданий и деревьев.
Скoрoсть ветра измеряется на высoте 10 м (на урoвне рoста челoвека скoрoсть ветра ниже в 1.5-2 раза). Если метеoстанция нахoдится в гoрoде или в лесу, тo скoрoсть ветра занижена на 2-4 м/с пo сравнению с oткрытым местoм. Скoрoсть ветра над акватoриями крупных рек и oзёр, а также на вершинах хoлмoв на 2-5 м/с выше, чем в oбычных услoвиях.
Атмoсфернoе давление в разных тoчках местнoсти мoжет значительнo oтличаться oт давления на метеoстанции, в зависимoсти oт услoвий рельефа (при пoдъёме на 10 м давление пoнижается примернo на 1 мм рт.ст.).